Regional Weather Roundup
Issued by NWS Mobile, AL

Home | Current Version | Previous Version | Text Only | Print | Product List | Glossary On
Versions: 1 2 3 4 5 6 7 8 9 10 11 12 13 14 15 16 17 18 19 20 21 22 23 24 25 26 27 28 29 30 31 32 33 34 35 36 37 38 39 40 41 42 43 44 45 46 47 48 49 50
000
ASUS44 KMOB 302210
RWRMOB
REGIONAL WEATHER ROUNDUP
NATIONAL WEATHER SERVICE MOBILE AL
500 PM CDT WED JUL 30 2014

NOTE: "FAIR" INDICATES FEW OR NO CLOUDS BELOW 12,000 FEET WITH NO
      SIGNIFICANT WEATHER AND/OR OBSTRUCTIONS TO VISIBILITY.

  * THESE STATIONS ARE PART OF THE UNIVERSITY OF SOUTH ALABAMA
    MESONET AND ARE NOT UNDER NWS OR FAA QUALITY CONTROL.

ALZ061>064-302300-
COASTAL ALABAMA

CITY           SKY/WX    TMP DP  RH WIND       PRES   REMARKS
MOBILE REG APT CLOUDY    85  56  37 VRB5      30.01S
BROOKLEY FIELD SUNNY     85  59  41 NE8       30.00F
USA CAMPUS*      N/A     86  55  35 CALM      29.97F
DOG RIVER*       N/A     84  57  39 E2        30.00


CITY           SKY/WX    TMP DP  RH WIND       PRES   REMARKS
MOUNT VERNON*    N/A     82  57  42 E3        30.00
SARALAND*      NOT AVBL
BAY MINETTE*   NOT AVBL
LOXLEY*          N/A     84  55  37 N9        29.99S
ROBERTSDALE*     N/A     84  57  39 N5        29.98F
FAIRHOPE*        N/A     82  52  34 N7        29.98F
ELBERTA*         N/A     86  73  66 NW5       29.97F
FOLEY*         NOT AVBL
GRAND BAY*     NOT AVBL
DAUPHIN ISLND* NOT AVBL
BON SCOUR NWR* NOT AVBL
GULF SHORES    SUNNY     86  59  40 N7        29.98S

$$

ALZ051>060-302300-
INTERIOR SOUTHWEST AND SOUTH CENTRAL ALABAMA

CITY           SKY/WX    TMP DP  RH WIND       PRES   REMARKS
GREENVILLE     SUNNY     85  52  32 NW9       30.01S
EVERGREEN      SUNNY     86  53  32 N9        30.01F
CASTLEBERRY*   NOT AVBL
ATMORE*          N/A     82  57  42 N9        30.01F
DIXIE*         NOT AVBL
ANDALUSIA/OPP  SUNNY     89  54  30 NE9       30.00S
ANDALUSIA*     NOT AVBL
FLORALA APT    SUNNY     86  57  37 N8        30.01F
FLORALA*         N/A     84  52  32 W6        29.96F

$$

FLZ001>006-302300-
WESTERN FLORIDA PANHANDLE

CITY           SKY/WX    TMP DP  RH WIND       PRES   REMARKS
PENSACOLA      SUNNY     84  52  33 N9        29.98F
NAS PENSACOLA  MOSUNNY   84  67  56 S12       29.97F
MILTON         MOSUNNY   86  56  35 VRB5      29.99S
WHTNG S FIELD  MOSUNNY   87  55  33 N9        29.99S


CITY           SKY/WX    TMP DP  RH WIND       PRES   REMARKS
WALNUT HILL*   NOT AVBL
JAY*           NOT AVBL
DUKE FIELD     MOSUNNY   88  63  42 N10       29.98S
CRESTVIEW      SUNNY     86  54  33 VRB7      30.00S
VALPARAISO     MOSUNNY   85  66  52 SE9       29.97S
DESTIN         SUNNY     85  67  54 SW6       29.97F

$$

MSZ076-079-302300-
INTERIOR SOUTHEAST MISSISSIPPI

CITY           SKY/WX    TMP DP  RH WIND       PRES   REMARKS
LEAKESVILLE*   NOT AVBL
AGRICOLA*      NOT AVBL

$$

MARINE OBSERVATIONS

STATION/POSITION TIME  TEMP    WIND        PRES    WAVE
                       AIR SEA DIR/SP/G            HT/PER
                 (UTC) (F)     (DEG/KT/KT) (MB)    (FT/S)
PASCAGOULA       2200   85     280/  7/ 10 1015.3F
PETIT BOIS ISLND 2200   82     220/  5/  6 1016.0F
GRAND BAY        2000   81     180/  7     1017.0S
KATRINA CUT      2100   80     200/  3     1016.6F
CEDAR POINT      2100   82     190/  4     1016.3S
E DAUPHIN ISLAND 2100   82     310/  2/  2 1015.8F
MIDDLE BAY LIGHT 2100   84      30/ 13     1014.9F
USCG MOBILE BAY  2200   83 83   60/  8/  9 1014.6S
STATE DOCKS      2200   86 82              1015.5R
MEAHER PARK      2100   83     360/  7     1015.2F
WEEKS BAY        2000   85                   N/A
12 S ORANGE BCH  2200   81 85  250/  6/  8 1015.5F   1
PENSACOLA BAY    2200   83 86  170/  5/  7 1015.5F
64 S DAUPHIN ISL 2138   81 88   20/  8/ 10 1015.9F
67 S FORT MORGAN 2100   82                 1015.6F

$$

SELECTED LOCATIONS ACROSS THE REGION

CITY           SKY/WX    TMP DP  RH WIND       PRES   REMARKS
NEW ORLEANS    MOSUNNY   87  62  43 N6        30.00F
GULFPORT       SUNNY     88  60  38 W7        29.99S
PASCAGOULA AP  SUNNY     86  60  41 NW6       29.99F
PASCAGOULA*      N/A     86  54  32 NE5       29.98F
HATTIESBURG    SUNNY     86  55  34 N8        30.03S
LAUREL         SUNNY     84  55  37 NW6       30.05S
MERIDIAN       SUNNY     85  52  32 N8        30.03F
JACKSON        MOSUNNY   85  56  37 N9        30.05S
MONTGOMERY     SUNNY     86  54  33 NE7       30.01S
TROY           SUNNY     85  52  32 N12       30.02S
KINSTON*       NOT AVBL
GENEVA*          N/A     86  54  32 NW3       30.00S
ASHFORD*       NOT AVBL
DOTHAN         SUNNY     84  59  42 NW9       30.03S
PANAMA CITY    MOSUNNY   85  61  44 W5        29.96S

$$




USA.gov is the U.S. government's official web portal to all federal, state and local government web resources and services.